Home > Weather > Detroit > Past weeks

Flag for U.S.A. Weather for the Past 2 Weeks in Detroit, Michigan, U.S.A.

Now
35 °F

Clear.


Feels Like: 27 °F
Forecast: 31 / 44 °F
Wind: 12 mph from Southwest

Location: Detroit City Airport

Current Time: Feb 6, 2016 at 9:32:53 PM

Latest Report: Feb 6, 2016 at 7:53 PM


Visibility: 10 mi

Pressure: 30.20 "Hg

Humidity: 61%

Dew point: 23 °F

Location of DetroitLocation

Historic Weather in Detroit — Graph

°F

Detroit Temperature Yesterday

Maximum temperature yesterday: 36 °F (at 1:53 PM)
Minimum temperature yesterday: 20 °F (at 5:53 AM)
Average temperature yesterday: 30 °F

High & Low Weather Summary for the Past Weeks

 TemperatureHumidityPressure
High56 °F (Feb 3, 10:53 AM)93% (Feb 2, 5:53 AM)30.39 "Hg (Feb 2, 5:53 AM)
Low19 °F (Jan 24, 1:53 AM)43% (Jan 29, 3:53 PM)29.46 "Hg (Feb 3, 5:53 AM)
Average34 °F70%29.96 "Hg
* Reported Jan 22 7:53 PM — Feb 6 7:53 PM, Detroit, Weather by CustomWeather, © 2016

Note: Actual official high and low records may vary slightly from our data, if they occured in-between our weather recording intervals... More about our weather records

Advertising

Detroit Weather History for the Previous 24 Hours

 ConditionsComfort  
Time TempWeatherWind HumidityBarometerVisibility
7:53 PM
Sat, Feb 6
35 °FClear.12 mph61%30.20 "Hg10 mi
6:53 PM35 °FClear.13 mph61%30.19 "Hg10 mi
5:53 PM35 °FOvercast.12 mph59%30.19 "Hg10 mi
4:53 PM37 °FOvercast.15 mph52%30.18 "Hg10 mi
3:53 PM37 °FPassing clouds.13 mph52%30.19 "Hg10 mi
2:53 PM39 °FPartly sunny.12 mph46%30.19 "Hg10 mi
1:53 PM38 °FPartly sunny.14 mph45%30.21 "Hg10 mi
12:53 PM38 °FSunny.14 mph43%30.23 "Hg10 mi
11:53 AM36 °FOvercast.10 mph52%30.27 "Hg10 mi
10:53 AM33 °FSunny.8 mph63%30.29 "Hg9 mi
9:53 AM30 °FSunny.10 mph72%30.30 "Hg8 mi
8:53 AM27 °FPartly sunny.8 mph75%30.30 "Hg9 mi
7:53 AM26 °FOvercast.7 mph74%30.30 "Hg10 mi
6:53 AM25 °FPassing clouds.7 mph75%30.30 "Hg10 mi
5:53 AM26 °FClear.7 mph69%30.30 "Hg10 mi
4:53 AM26 °FClear.10 mph71%30.29 "Hg10 mi
3:53 AM27 °FPassing clouds.8 mph72%30.28 "Hg10 mi
2:53 AM29 °FPassing clouds.7 mph66%30.28 "Hg10 mi
2:03 AM31 °FPartly cloudy.9 mph67%30.25 "Hg10 mi
1:53 AM31 °FOvercast.12 mph73%30.27 "Hg10 mi
12:53 AM32 °FMostly cloudy.9 mph75%30.27 "Hg8 mi
11:53 PM
Fri, Feb 5
33 °FMostly cloudy.5 mph75%30.27 "Hg10 mi
11:03 PM33 °FPassing clouds.5 mph75%30.26 "Hg10 mi
10:53 PM33 °FPartly cloudy.6 mph75%30.29 "Hg10 mi
9:53 PM34 °FMostly cloudy.7 mph73%30.29 "Hg10 mi
Weather by CustomWeather, © 2016

See weather overviewHow to use our weather pages